Regional Weather Roundup
Issued by NWS

Home | Current Version | Previous Version | Graphics & Text | Print | Product List | Glossary On
Versions: 1 2 3 4 5 6 7 8 9 10 11 12 13 14 15 16 17 18 19 20 21 22 23 24 25 26 27
778
ASUS45 KCYS 220410
RWRWY

WYOMING REGIONAL WEATHER ROUNDUP
NATIONAL WEATHER SERVICE CHEYENNE WY
1000 PM MDT THU MAY 21 2015

NOTE:  "FAIR" INDICATES FEW OR NO CLOUDS BELOW 12,000 FEET
WITH NO SIGNIFICANT WEATHER AND/OR OBSTRUCTIONS TO VISIBILITY.

WYZ001-220500-
YELLOWSTONE NATIONAL PARK

CITY           SKY/WX    TMP DP  RH WIND       PRES   REMARKS
LK YELLOWSTONE   N/A     38  34  85 CALM      30.09R
W YELLOWSTONE  NOT AVBL

$$
WYZ002>013-054>058-071-098>099-220500-
NORTHERN WYOMING

CITY           SKY/WX    TMP DP  RH WIND       PRES   REMARKS
JACKSON        FAIR      46  39  76 W7        30.01R
CODY           CLOUDY    50  43  76 W9        30.01S
GREYBULL       FAIR      60  42  51 S13       29.95R
WORLAND        MOCLDY    59  43  55 SE16      29.97R
SHERIDAN       FAIR      53  42  66 SE16G23   30.01S
BUFFALO        CLOUDY    50  43  77 S9        30.08R
GILLETTE       FAIR      48  41  76 SE13      30.08S
HULETT         FAIR      48  37  66 SE7       30.12R
NEWCASTLE      CLOUDY    52  37  58 E15G21    30.13R

$$
WYZ014>020-022>026-101>103-220500-
CENTRAL WYOMING

CITY           SKY/WX    TMP DP  RH WIND       PRES   REMARKS
BIG PINEY      MOCLDY    46  41  82 CALM      30.05R
PINEDALE       CLOUDY    45  39  81 CALM      30.05S
DUBOIS         LGT RAIN  39  37  93 S16       30.05R WCI  30
LANDER         CLOUDY    50  41  71 S14       30.02R
RIVERTON         N/A    N/A N/A N/A MISG      30.03F
CASPER         CLOUDY    49  42  77 E15       30.04R
DOUGLAS        MOCLDY    48  43  82 SE10      30.08R

$$
WYZ021-027>030-104>119-220500-
SOUTHERN WYOMING

CITY           SKY/WX    TMP DP  RH WIND       PRES   REMARKS
EVANSTON       LGT RAIN  41  39  93 N7        30.04F
KEMMERER       CLOUDY    41  37  87 CALM      30.06R
FORT BRIDGER   CLOUDY    45  45 100 SW13      30.08R
ROCK SPRINGS   FAIR      45  40  82 E6        30.04R
DIXON          CLOUDY    51  42  69 SE12G18   30.05R
RAWLINS        RAIN      45  41  86 SW16      30.08R
SARATOGA       MOCLDY    48  39  71 W8        30.05R
LARAMIE        CLOUDY    44  39  82 S16G35    30.10R
CHEYENNE       CLOUDY    46  42  86 S15G25    30.14R
TORRINGTON     MOCLDY    51  44  77 SE13      30.11R
PINE BLUFFS    CLOUDY    46  43  87 SE16G23   30.15R

$$



USA.gov is the U.S. government's official web portal to all federal, state and local government web resources and services.